Location: Makakahi
(40.6833°S, 175.6000°E)
Time: 14:31:36
(UTC+00:00)

COSMOS 2455 - Visible Passes

Search period start: 04 October 2024 00:00
Search period end: 14 October 2024 00:00
Orbit: 898 x 910 km, 67.1° (Epoch: 04 October)

Date Brightness Start Highest point End Pass type
(mag) Time Alt. Az. Time Alt. Az. Time Alt. Az.
04 Oct 3.2 06:44:04 10° SSW 06:49:55 47° SE 06:55:42 10° NE visible
04 Oct 4.5 08:30:29 10° SW 08:35:32 28° WNW 08:40:34 10° NNW visible
05 Oct 3.0 06:47:48 10° SSW 06:53:49 63° ESE 06:59:47 10° NE visible
05 Oct 5.0 08:34:52 10° WSW 08:39:11 21° WNW 08:43:30 10° NNW visible
06 Oct 2.9 06:51:36 10° SSW 06:57:41 83° ESE 07:03:43 10° NNE visible
06 Oct 5.4 08:39:38 10° WSW 08:42:47 15° WNW 08:45:56 10° NW visible
07 Oct 3.1 06:55:27 10° SSW 07:01:30 75° WNW 07:07:30 10° NNE visible
08 Oct 3.7 06:59:23 10° SW 07:05:17 55° WNW 07:11:07 10° N visible
09 Oct 4.3 07:03:24 10° SW 07:09:00 40° WNW 07:14:33 10° N visible
10 Oct 4.9 07:07:34 10° SW 07:12:41 29° WNW 07:17:47 10° NNW visible
11 Oct 5.4 07:11:55 10° WSW 07:16:19 21° WNW 07:20:43 10° NNW visible
12 Oct 5.6 07:16:37 10° WSW 07:19:55 15° WNW 07:23:12 10° NW visible
13 Oct 6.1 07:22:50 10° W 07:23:28 10° W 07:24:07 10° WNW visible
